GW2075 Weather Reports


time (UTC)temp
C
wind
direction
speed
KPH
gust
KPH
rain 1hr
cm
rain 24hr
cm
rain mn
cm
humidity
%
barometer
mb
20260507091549 9 342 0.0 0.0 0.00 0.10 0.10 87 1013.3
20260507091045 9 334 0.0 0.0 0.00 0.10 0.10 86 1013.1
20260507090541 9 350 0.0 0.0 0.00 0.10 0.10 87 1013.1
20260507090038 9 350 0.0 0.0 0.00 0.10 0.10 86 1013.3
20260507085535 9 345 0.0 0.0 0.00 0.10 0.10 86 1013.1
20260507085032 10 351 0.0 0.0 0.00 0.10 0.10 86 1013.0
20260507084528 10 331 0.0 0.0 0.00 0.10 0.10 85 1013.1
20260507084026 10 352 0.0 3.2 0.00 0.10 0.10 84 1013.2
20260507083521 10 351 4.8 4.8 0.00 0.10 0.10 84 1013.1
20260507083019 10 6 1.6 8.0 0.00 0.10 0.10 84 1013.3
20260507082515 10 18 1.6 4.8 0.00 0.10 0.10 86 1012.9
20260507082011 10 40 0.0 1.6 0.00 0.10 0.10 87 1013.1
20260507081508 10 10 4.8 4.8 0.00 0.10 0.10 89 1012.9
20260507081005 10 355 3.2 4.8 0.00 0.10 0.10 90 1012.5
20260507080500 10 18 1.6 3.2 0.00 0.10 0.10 93 1012.7
20260507075956 10 34 1.6 3.2 0.00 0.10 0.10 95 1012.6
20260507075452 10 342 1.6 3.2 0.00 0.10 0.10 96 1012.7
20260507074949 10 352 0.0 1.6 0.00 0.10 0.10 97 1012.7
20260507074446 10 355 1.6 1.6 0.00 0.10 0.10 97 1012.7
20260507073944 10 354 0.0 0.0 0.00 0.10 0.10 97 1012.6
20260507073440 11 352 3.2 4.8 0.00 0.10 0.10 97 1012.6
20260507072936 11 11 0.0 0.0 0.00 0.10 0.10 97 1012.7
20260507072434 10 354 0.0 0.0 0.00 0.10 0.10 97 1013.1
20260507071932 10 354 0.0 0.0 0.00 0.10 0.10 97 1013.0
20260507071428 10 353 0.0 0.0 0.00 0.10 0.10 97 1012.7
20260507070925 10 354 0.0 0.0 0.00 0.10 0.10 97 1013.0
20260507070422 10 354 0.0 0.0 0.00 0.10 0.10 97 1013.1
20260507065919 11 354 0.0 0.0 0.00 0.10 0.10 97 1012.9
20260507065415 11 353 0.0 0.0 0.00 0.10 0.10 97 1013.3
20260507064907 11 354 0.0 0.0 0.00 0.10 0.10 96 1012.9
20260507064405 11 354 0.0 0.0 0.00 0.10 0.10 96 1013.0
20260507063903 11 356 0.0 0.0 0.00 0.10 0.10 96 1012.8
20260507063400 11 354 0.0 0.0 0.00 0.10 0.10 96 1012.9
20260507062857 11 354 0.0 0.0 0.00 0.10 0.10 96 1013.2
20260507062353 11 355 0.0 0.0 0.13 0.10 0.10 96 1013.1
20260507061851 11 355 0.0 0.0 0.13 0.10 0.10 95 1013.1
20260507061349 11 356 0.0 0.0 0.00 0.08 0.08 95 1013.0
20260507060847 11 354 0.0 0.0 0.00 0.08 0.08 95 1013.3
20260507060343 11 354 0.0 0.0 0.18 0.08 0.08 94 1013.1
20260507055840 11 354 0.0 0.0 0.18 0.08 0.08 94 1013.0
20260507055335 11 353 0.0 0.0 0.00 0.05 0.05 93 1013.2
20260507054833 11 352 0.0 0.0 0.00 0.05 0.05 93 1012.9
20260507054328 11 354 0.0 0.0 0.00 0.05 0.05 92 1013.1
20260507053826 11 353 0.0 0.0 0.00 0.05 0.05 92 1013.1
20260507053324 11 356 0.0 0.0 0.00 0.05 0.05 92 1012.8
20260507052822 11 44 0.0 1.6 0.00 0.05 0.05 92 1012.7
20260507052319 11 0 1.6 1.6 0.00 0.05 0.05 91 1012.9
20260507051816 11 10 1.6 1.6 0.00 0.05 0.05 91 1012.8
20260507051314 11 335 3.2 9.7 0.00 0.05 0.05 92 1012.9
20260507050810 11 12 1.6 3.2 0.00 0.05 0.05 93 1012.9
20260507050306 11 40 0.0 4.8 0.00 0.05 0.05 94 1012.8
20260507045804 11 5 1.6 1.6 0.00 0.05 0.05 95 1012.8
20260507045300 11 7 0.0 0.0 0.00 0.05 0.05 95 1013.0
20260507044757 11 357 0.0 0.0 0.00 0.05 0.05 95 1012.9
20260507044253 11 349 0.0 1.6 0.00 0.05 0.05 95 1013.2
20260507043750 12 348 0.0 1.6 0.00 0.05 0.05 95 1013.0
20260507043247 12 349 0.0 0.0 0.00 0.05 0.05 95 1013.0
20260507042743 12 347 0.0 0.0 0.00 0.05 0.05 94 1012.8
20260507042238 12 352 0.0 0.0 0.00 0.05 0.05 94 1012.9
20260507041736 12 348 0.0 0.0 0.13 0.05 0.05 93 1012.8
20260507041232 12 338 1.6 3.2 0.30 0.05 0.05 92 1013.0
20260507040729 12 355 1.6 3.2 0.18 0.03 0.03 91 1012.6
20260507040225 12 348 0.0 1.6 0.13 0.00 0.00 90 1012.6
20260507035721 13 317 4.8 9.7 0.30 0.69 0.69 90 1012.2
20260507035217 13 347 1.6 3.2 0.13 0.64 0.64 89 1012.6
20260507034715 13 359 1.6 3.2 0.13 0.64 0.64 88 1012.3
20260507034212 13 348 0.0 1.6 0.00 0.61 0.61 88 1012.6
20260507033710 13 350 0.0 1.6 0.00 0.61 0.61 87 1012.6
20260507033207 13 327 1.6 8.0 0.00 0.61 0.61 87 1012.5
20260507032704 13 326 3.2 4.8 0.00 0.61 0.61 87 1012.5
20260507032200 13 307 6.4 9.7 0.00 0.61 0.61 86 1012.8
20260507031657 13 326 6.4 8.0 0.00 0.61 0.61 86 1012.5
20260507031154 13 337 3.2 4.8 0.00 0.61 0.61 85 1012.5
20260507030650 13 349 3.2 8.0 0.00 0.61 0.61 85 1013.0
20260507030148 13 350 1.6 8.0 0.00 0.61 0.61 85 1012.3
20260507025645 14 287 8.0 11.3 0.00 0.61 0.61 85 1012.2
20260507025142 14 293 9.7 11.3 0.00 0.61 0.61 85 1012.0
20260507024640 14 272 4.8 11.3 0.00 0.61 0.61 85 1012.0
20260507024137 14 320 4.8 8.0 0.00 0.61 0.61 84 1012.0
20260507023632 15 296 1.6 4.8 0.00 0.61 0.61 84 1012.3
20260507023130 15 312 4.8 4.8 0.00 0.61 0.61 83 1012.4
20260507022627 15 1 0.0 3.2 0.00 0.61 0.61 83 1012.4
20260507022122 15 346 1.6 8.0 0.00 0.61 0.61 83 1012.3
20260507021619 15 307 4.8 8.0 0.00 0.61 0.61 83 1012.1
20260507021115 15 3 3.2 11.3 0.00 0.61 0.61 83 1012.1
20260507020613 15 305 4.8 4.8 0.00 0.61 0.61 84 1011.9
20260507020109 15 314 3.2 8.0 0.00 0.61 0.61 84 1012.0
20260507015608 15 336 4.8 8.0 0.00 0.61 0.61 84 1012.0
20260507015104 15 347 3.2 8.0 0.00 0.61 0.61 84 1011.8
20260507014601 15 312 4.8 9.7 0.00 0.61 0.61 85 1012.0
20260507014057 15 335 4.8 8.0 0.00 0.61 0.61 86 1012.1
20260507013554 15 6 0.0 1.6 0.00 0.61 0.61 87 1012.1
20260507013051 15 342 1.6 3.2 0.00 0.61 0.61 87 1012.1
20260507012548 15 349 0.0 1.6 0.00 0.61 0.61 87 1012.0
20260507012043 15 15 0.0 1.6 0.00 0.61 0.61 87 1011.9
20260507011541 15 337 0.0 1.6 0.00 0.61 0.61 87 1012.3
20260507011032 16 354 0.0 4.8 0.00 0.61 0.61 88 1011.9
20260507010526 16 16 11.3 14.5 0.00 0.61 0.61 88 1012.1
20260507010023 16 343 1.6 3.2 0.00 0.61 0.61 88 1011.8
20260507005520 16 350 1.6 3.2 0.00 0.61 0.61 88 1012.0
20260507005016 16 252 4.8 4.8 0.00 0.61 0.61 88 1012.0
20260507004513 16 350 1.6 1.6 0.00 0.61 0.61 89 1011.7
20260507004006 16 316 4.8 11.3 0.00 0.61 0.61 89 1012.0
20260507003501 16 309 3.2 4.8 0.00 0.61 0.61 90 1011.8
20260507002956 16 352 0.0 1.6 0.00 0.61 0.61 89 1011.5
20260507002453 17 356 1.6 3.2 0.00 0.61 0.61 88 1011.3
20260507001950 17 304 4.8 8.0 0.00 0.61 0.61 87 1011.3
20260507001446 17 337 3.2 8.0 0.00 0.61 0.61 87 1011.6
20260507000944 17 329 4.8 8.0 0.00 0.61 0.61 87 1011.3
20260507000439 17 344 3.2 4.8 0.00 0.61 0.61 88 1011.4
20260506235935 17 282 4.8 4.8 0.00 0.61 0.61 89 1010.8
20260506235432 17 329 1.6 3.2 0.00 0.61 0.61 89 1010.6
20260506234927 17 326 1.6 4.8 0.00 0.61 0.61 91 1010.1
20260506234426 17 288 8.0 9.7 0.00 0.61 0.61 93 1010.4
20260506233923 17 343 1.6 3.2 0.00 0.61 0.61 94 1010.3
20260506233420 17 339 1.6 9.7 0.00 0.61 0.61 94 1010.6
20260506232916 17 340 1.6 8.0 0.00 0.61 0.61 94 1010.4
20260506232413 18 342 0.0 3.2 0.00 0.61 0.61 94 1010.3
20260506231908 18 306 3.2 3.2 0.00 0.61 0.61 94 1010.1
20260506231406 18 340 0.0 1.6 0.00 0.61 0.61 93 1010.2
20260506230903 18 332 3.2 3.2 0.00 0.61 0.61 93 1009.9
20260506230400 18 314 3.2 3.2 0.00 0.61 0.61 93 1009.8
20260506225856 18 299 1.6 4.8 0.00 0.61 0.61 93 1010.0
20260506225353 18 224 4.8 9.7 0.00 0.61 0.61 93 1009.9
20260506224850 18 310 3.2 3.2 0.00 0.61 0.61 93 1010.0
20260506224348 18 322 1.6 8.0 0.00 0.61 0.61 93 1010.0
20260506223844 18 312 4.8 8.0 0.00 0.61 0.61 93 1009.8
20260506223339 18 19 4.8 8.0 0.00 0.61 0.61 93 1010.0
20260506222836 18 315 4.8 9.7 0.00 0.61 0.61 93 1009.8
20260506222331 18 304 1.6 8.0 0.00 0.61 0.61 92 1009.9
20260506221825 18 235 4.8 9.7 0.00 0.61 0.61 91 1009.9
20260506221322 18 310 3.2 9.7 0.00 0.61 0.61 91 1010.1
20260506220819 18 300 3.2 9.7 0.00 0.61 0.61 90 1010.1
20260506220314 18 212 4.8 8.0 0.00 0.61 0.61 90 1009.7
20260506215811 18 307 1.6 8.0 0.00 0.61 0.61 90 1009.7
20260506215307 18 286 8.0 9.7 0.00 0.61 0.61 90 1009.8
20260506214803 18 219 3.2 11.3 0.00 0.61 0.61 90 1009.6
20260506214300 18 199 6.4 9.7 0.00 0.61 0.61 90 1009.7
20260506213758 18 290 4.8 4.8 0.00 0.61 0.61 90 1009.7
20260506213254 18 263 4.8 9.7 0.00 0.61 0.61 89 1009.6
20260506212752 18 220 4.8 8.0 0.00 0.61 0.61 89 1009.6
20260506212248 18 282 3.2 8.0 0.00 0.61 0.61 89 1009.2
20260506211743 18 248 8.0 12.9 0.00 0.61 0.61 89 1009.3
20260506211240 18 243 6.4 9.7 0.00 0.61 0.61 89 1009.5
20260506210737 18 274 3.2 9.7 0.00 0.61 0.61 89 1009.2
20260506210233 19 219 4.8 4.8 0.00 0.61 0.61 89 1009.1
20260506205730 19 195 4.8 4.8 0.00 0.61 0.61 89 1009.1
20260506205225 19 294 3.2 4.8 0.00 0.61 0.61 89 1009.1
20260506204718 18 221 4.8 8.0 0.00 0.61 0.61 89 1009.0
20260506204215 18 311 4.8 8.0 0.00 0.61 0.61 89 1009.0
20260506203713 18 209 6.4 9.7 0.00 0.61 0.61 89 1009.1
20260506203210 18 240 8.0 11.3 0.00 0.61 0.61 89 1009.2
20260506202708 18 281 4.8 11.3 0.00 0.61 0.61 89 1009.5
20260506202203 19 275 3.2 4.8 0.00 0.61 0.61 89 1009.1
20260506201701 18 206 3.2 9.7 0.00 0.61 0.61 89 1009.0
20260506201156 18 237 6.4 11.3 0.00 0.61 0.61 88 1008.9
20260506200654 19 220 12.9 14.5 0.00 0.61 0.61 88 1009.1
20260506200150 19 195 11.3 12.9 0.00 0.61 0.61 88 1009.3
20260506195647 19 285 4.8 14.5 0.00 0.61 0.61 88 1009.2
20260506195143 19 306 8.0 11.3 0.00 0.61 0.61 88 1009.1
20260506194641 19 297 6.4 12.9 0.00 0.61 0.61 88 1009.1
20260506194137 19 195 8.0 12.9 0.00 0.61 0.61 88 1009.1
20260506193635 19 267 9.7 12.9 0.00 0.61 0.61 88 1009.4
20260506193132 19 219 8.0 11.3 0.00 0.61 0.61 88 1009.0
20260506192628 18 254 6.4 14.5 0.00 0.61 0.61 88 1009.0
20260506192124 18 238 6.4 16.1 0.00 0.61 0.61 89 1009.1
20260506191621 18 250 8.0 11.3 0.00 0.61 0.61 89 1009.2
20260506191117 18 286 4.8 8.0 0.00 0.61 0.61 90 1009.4
20260506190615 18 294 4.8 4.8 0.00 0.61 0.61 90 1009.2
20260506190112 18 228 6.4 9.7 0.00 0.61 0.61 90 1009.4
20260506185609 18 237 4.8 8.0 0.00 0.61 0.61 90 1009.5
20260506185105 18 251 4.8 4.8 0.00 0.61 0.61 90 1009.4
20260506184602 18 231 8.0 11.3 0.00 0.61 0.61 89 1009.4
20260506184100 18 236 8.0 9.7 0.00 0.61 0.61 89 1009.5
20260506183556 18 271 6.4 11.3 0.00 0.61 0.61 89 1009.5
20260506183052 18 302 9.7 16.1 0.00 0.61 0.61 88 1009.4
20260506182550 18 245 8.0 11.3 0.00 0.61 0.61 89 1009.5
20260506182047 18 255 16.1 24.1 0.00 0.61 0.61 89 1009.7
20260506181545 18 204 4.8 14.5 0.00 0.61 0.61 89 1009.4
20260506181041 18 209 4.8 4.8 0.00 0.61 0.61 89 1009.7
20260506180538 18 214 11.3 11.3 0.00 0.61 0.61 89 1009.4
20260506180035 18 252 8.0 16.1 0.00 0.61 0.61 90 1009.5
20260506175531 17 239 8.0 12.9 0.00 0.61 0.61 90 1009.4
20260506175027 17 216 14.5 20.9 0.00 0.61 0.61 89 1009.5
20260506174526 18 308 6.4 17.7 0.00 0.61 0.61 90 1009.7
20260506174022 17 252 8.0 14.5 0.00 0.61 0.61 90 1009.6
20260506173520 17 112 6.4 11.3 0.00 0.61 0.61 92 1009.5
20260506173016 17 238 14.5 24.1 0.00 0.61 0.61 92 1009.6
20260506172513 16 225 14.5 22.5 0.00 0.61 0.61 93 1009.6
20260506172004 16 214 9.7 11.3 0.00 0.61 0.61 93 1009.8
20260506171502 17 226 12.9 17.7 0.00 0.61 0.61 93 1009.7
20260506170959 16 181 9.7 14.5 0.00 0.61 0.61 93 1009.7
20260506170455 16 254 4.8 9.7 0.00 0.61 0.61 93 1009.9
20260506165948 16 286 11.3 14.5 0.00 0.61 0.61 93 1009.6
20260506165446 16 192 16.1 25.7 0.00 0.61 0.61 94 1009.6
20260506164941 16 181 9.7 16.1 0.00 0.61 0.61 94 1009.8
20260506164438 16 220 9.7 17.7 0.00 0.61 0.61 94 1009.6
20260506163936 16 165 9.7 16.1 0.00 0.61 0.61 95 1009.7
20260506163431 16 181 11.3 14.5 0.00 0.61 0.61 95 1009.9
20260506162926 16 217 8.0 12.9 0.00 0.61 0.61 95 1009.8
20260506162424 16 279 6.4 17.7 0.00 0.61 0.61 95 1009.7
20260506161921 16 292 6.4 17.7 0.00 0.61 0.61 96 1009.8
20260506161419 16 270 9.7 16.1 0.00 0.61 0.61 96 1009.8
20260506160911 15 224 8.0 20.9 0.00 0.61 0.61 96 1009.7
20260506160408 15 217 14.5 20.9 0.00 0.61 0.61 97 1009.9
20260506155906 15 190 4.8 14.5 0.00 0.61 0.61 97 1009.9
20260506155403 15 267 11.3 16.1 0.00 0.61 0.61 97 1010.3
20260506153525 16 227 9.7 14.5 0.00 0.61 0.61 98 1009.6
20260506153023 16 193 8.0 14.5 0.00 0.61 0.61 98 1009.7
20260506152519 15 238 8.0 16.1 0.00 0.61 0.61 98 1009.5
20260506152018 15 218 12.9 14.5 0.00 0.61 0.61 98 1009.5
20260506151515 15 217 9.7 22.5 0.00 0.61 0.61 98 1009.4
20260506151012 15 137 9.7 22.5 0.00 0.61 0.61 98 1009.3
20260506150508 15 222 11.3 14.5 0.18 0.61 0.61 98 1009.5
20260506150006 15 203 8.0 12.9 0.18 0.61 0.61 99 1009.7
20260506145502 15 214 6.4 9.7 0.18 0.58 0.58 99 1009.9
20260506145000 15 230 8.0 11.3 0.30 0.58 0.58 98 1010.2
20260506144456 15 238 8.0 9.7 0.30 0.56 0.56 98 1010.7
20260506143954 15 253 14.5 17.7 0.48 0.53 0.53 98 1010.9
20260506143451 15 296 6.4 8.0 0.30 0.51 0.51 98 1011.1
20260506142949 15 226 8.0 12.9 0.13 0.46 0.46 98 1010.6
20260506142447 15 295 9.7 12.9 0.13 0.46 0.46 98 1010.4
20260506141944 15 280 3.2 3.2 0.18 0.43 0.43 98 1010.3
20260506141442 15 213 8.0 12.9 0.30 0.43 0.43 98 1010.3
20260506140941 15 256 6.4 8.0 0.30 0.41 0.41 98 1010.4
20260506140437 15 229 9.7 12.9 0.18 0.38 0.38 98 1010.1
20260506135934 15 201 9.7 14.5 0.00 0.36 0.36 97 1010.0
20260506135431 15 219 14.5 17.7 0.00 0.36 0.36 97 1009.9
20260506134927 15 241 8.0 11.3 0.13 0.36 0.36 97 1009.8
20260506134423 15 208 8.0 22.5 0.13 0.36 0.36 97 1009.8
20260506133921 15 215 8.0 16.1 0.00 0.33 0.33 97 1010.2
20260506133418 15 212 12.9 17.7 0.00 0.33 0.33 97 1010.2
20260506132914 15 197 8.0 12.9 0.18 0.33 0.33 97 1010.2
20260506132411 15 233 8.0 11.3 0.13 0.30 0.30 97 1010.1
20260506131909 15 287 4.8 12.9 0.13 0.30 0.30 97 1010.1
20260506131405 15 253 8.0 9.7 0.00 0.28 0.28 97 1010.4
20260506130902 15 179 6.4 12.9 0.18 0.28 0.28 97 1010.3
20260506130358 15 234 3.2 9.7 0.18 0.25 0.25 96 1010.4
20260506125857 15 241 9.7 12.9 0.30 0.23 0.23 96 1010.4
20260506125355 15 220 8.0 11.3 0.18 0.20 0.20 96 1010.3
20260506124853 15 346 3.2 11.3 0.13 0.18 0.18 96 1010.3
20260506124349 15 219 4.8 12.9 0.13 0.18 0.18 95 1010.3
20260506123847 15 212 8.0 17.7 0.18 0.15 0.15 95 1010.3
20260506123345 15 180 11.3 14.5 0.18 0.15 0.15 94 1010.4
20260506122842 16 176 9.7 11.3 0.13 0.13 0.13 94 1010.3
20260506122339 16 231 11.3 16.1 0.18 0.10 0.10 93 1010.4
20260506121837 16 218 8.0 12.9 0.30 0.10 0.10 92 1010.6
20260506121334 16 242 8.0 11.3 0.13 0.08 0.08 91 1010.6
20260506120831 16 240 8.0 14.5 0.18 0.05 0.05 90 1010.9
20260506120329 16 193 11.3 16.1 0.18 0.05 0.05 89 1011.0
20260506115826 16 238 6.4 14.5 0.00 0.03 0.03 89 1010.9
20260506115324 16 303 8.0 16.1 0.13 0.03 0.03 88 1010.9
20260506114822 17 235 14.5 17.7 0.13 0.03 0.03 87 1010.8
20260506114320 17 191 11.3 14.5 0.00 0.00 0.00 86 1011.0
20260506113818 17 216 8.0 11.3 0.00 0.00 0.00 85 1010.8
20260506113315 17 214 14.5 24.1 0.00 0.00 0.00 83 1010.4
20260506112811 17 246 9.7 17.7 0.00 0.00 0.00 83 1010.7
20260506112309 17 250 9.7 14.5 0.00 0.00 0.00 83 1010.4
20260506111806 17 154 4.8 14.5 0.00 0.00 0.00 84 1010.1
20260506111304 17 215 11.3 14.5 0.00 0.00 0.00 83 1009.9
20260506110801 17 199 12.9 17.7 0.00 0.00 0.00 82 1010.0
20260506110258 17 221 12.9 16.1 0.00 0.00 0.00 80 1010.1
20260506105755 17 156 14.5 22.5 0.00 0.00 0.00 79 1009.9
20260506105252 18 205 8.0 16.1 0.00 0.00 0.00 79 1009.6
20260506104749 17 220 14.5 20.9 0.00 0.00 0.00 78 1009.8
20260506104247 18 176 11.3 14.5 0.00 0.00 0.00 78 1009.7
20260506103744 18 161 11.3 20.9 0.00 0.00 0.00 77 1009.7
20260506103242 18 242 12.9 20.9 0.00 0.00 0.00 76 1009.4
20260506102739 18 225 6.4 14.5 0.00 0.00 0.00 77 1009.5
20260506102237 18 222 6.4 20.9 0.00 0.00 0.00 77 1009.5
20260506101733 18 270 8.0 16.1 0.00 0.00 0.00 76 1009.3
20260506101230 18 312 8.0 25.7 0.00 0.00 0.00 75 1009.3
20260506100728 18 212 11.3 22.5 0.00 0.00 0.00 75 1009.7
20260506100226 18 209 12.9 17.7 0.00 0.00 0.00 73 1009.4
20260506095724 18 209 6.4 17.7 0.00 0.00 0.00 72 1009.6
20260506095221 18 239 4.8 14.5 0.00 0.00 0.00 72 1009.3
20260506094718 18 198 11.3 20.9 0.00 0.00 0.00 72 1009.2
20260506094216 18 194 12.9 17.7 0.00 0.00 0.00 72 1009.5
20260506093715 18 186 9.7 16.1 0.00 0.00 0.00 72 1009.3
20260506093211 18 210 9.7 24.1 0.00 0.00 0.00 71 1009.2
20260506092709 18 198 6.4 14.5 0.00 0.00 0.00 71 1009.2
20260506092206 18 217 12.9 22.5 0.00 0.00 0.00 71 1009.3